Location: Dammartin
(48.9032°N, 1.6195°E)
Time: 15:50:15
(UTC+00:00)

Cosmos 841 Rocket - Pass Details

Date: 03 February 2023
Orbit: 746 x 771 km, 74.0° (Epoch: 30 March)

Event Time Altitude Azimuth Distance (km) Brightness Sun altitude
Rises 18:29:06 0° 338° (NNW) 3,257 7.0 -15.8°
Reaches altitude 10° 18:31:32 10° 342° (NNW) 2,326 6.1 -16.2°
Maximum altitude 18:36:47 64° 64° (ENE) 854 3.4 -17.1°
Drops below altitude 10° 18:41:59 10° 146° (SE) 2,303 5.7 -17.9°
Enters shadow 18:42:38 - 147° (SSE) 2,552 5.9 -18.0°
